Location: T�bingen+AIT
(48.5342°N, 9.0700°E)
Time: 20:28:11
(UTC+02:00)

Helios 1A - Pass Details

Date: 14 September 2017
Orbit: 587 x 603 km, 98.2° (Epoch: 17 September)

Event Time Altitude Azimuth Distance (km) Brightness Sun altitude
Exits shadow 21:58:28 49° 197° (SSW) 778 3.4 -22.5°
Maximum altitude 21:59:27 67° 257° (WSW) 650 3.2 -22.7°
Drops below altitude 10° 22:03:38 10° 341° (NNW) 1,940 6.3 -23.2°
Sets 22:05:49 0° 344° (NNW) 2,844 7.2 -23.5°
